Location: St. Louis
(38.6270°N, 90.1994°W)
Time: 08:57:45
(UTC-05:00)

COSMOS 2251 DEB - Pass Details

Date: 12 July 2022
Orbit: 573 x 629 km, 74.1° (Epoch: 16 August)

Event Time Altitude Azimuth Distance (km) Brightness Sun altitude
Exits shadow 05:01:45 - 195° (SSW) 2,390 ? -8.2°
Reaches altitude 10° 05:02:56 10° 195° (SSW) 1,906 ? -8.0°
Maximum altitude 05:07:11 84° 110° (ESE) 604 ? -7.3°
Drops below altitude 10° 05:11:34 10° 20° (NNE) 1,958 ? -6.6°
Sets 05:13:50 0° 20° (NNE) 2,876 ? -6.2°
